Gakona, AK

12:44 PM AKST on February 06, 2016 (GMT -0900)
Gulkana

Weather History for PAGK - June, 2013

Change the Weather History Date:

Sunday, June 2, 2013

  Actual Average Record
Temperature  
Mean Temperature 52 °F -  
Max Temperature 61 °F 60 °F 80 °F (1953)
Min Temperature 44 °F 39 °F 28 °F (1985)
Degree Days  
Heating Degree Days 12    
Growing Degree Days 2 (Base 50)    
Moisture  
Dew Point 38 °F    
Average Humidity 58    
Maximum Humidity 79    
Minimum Humidity 35    
Precipitation  
Precipitation 0.00 in - - ()
Sea Level Pressure  
Sea Level Pressure 30.08 in    
Wind  
Wind Speed 11 mph (SSE)    
Max Wind Speed 18 mph    
Max Gust Speed 24 mph    
Visibility 10 miles    
Events Rain    
Averages and records for this station are not official NWS values.
T = Trace of Precipitation, MM = Missing Value Source: NWS Daily Summary

Daily Weather History Graph

Daily Weather History Graph

Search for Another Location

Airport or City:

Trip Planner

Search our weather history database for the weather conditions in past years. The results will help you decide how hot, cold, wet, or windy it might be!

Date:

Astronomy

Jun. 02, 2013 Rise Set
Actual Time 4:04 AM AKDT 11:16 PM AKDT
Civil Twilight 2:12 AM AKDT 1:07 AM AKDT
Nautical Twilight Sun does not rise Sun does not rise
Astronomical Twilight Sun does not rise Sun does not rise
Moon 2:27 AM AKDT (6/2) 4:15 PM AKDT (6/2)
Length of Visible Light 22h 55m
Length of Day
19h 12m
Waning Crescent, 29% of the Moon is Illuminated
Jun 2
Waning Crescent
Jun 8
New
Jun 16
First Quarter
Jun 23
Full
Jun 29
Last Quarter

Hourly Weather History & Observations

Time (AKDT) Temp. Windchill Dew Point Humidity Pressure Visibility Wind Dir Wind Speed Gust Speed Precip Events Conditions
12:53 AM 50.0 °F - 39.0 °F 66% 30.06 in 10.0 mi SSE 11.5 mph - N/A   Partly Cloudy
1:53 AM 48.0 °F - 39.0 °F 71% 30.06 in 10.0 mi South 8.1 mph - N/A   Clear
2:53 AM 46.0 °F 41.0 °F 37.9 °F 73% 30.06 in 10.0 mi South 10.4 mph - N/A   Clear
3:53 AM 45.0 °F 40.6 °F 37.9 °F 76% 30.08 in 10.0 mi South 8.1 mph - N/A   Clear
4:53 AM 44.1 °F 39.5 °F 37.9 °F 79% 30.09 in 10.0 mi South 8.1 mph - N/A   Clear
5:53 AM 45.0 °F 39.7 °F 37.9 °F 76% 30.10 in 10.0 mi South 10.4 mph - N/A   Clear
5:58 AM 45.0 °F 40.1 °F 37.9 °F 76% 30.10 in 10.0 mi South 9.2 mph - N/A   Overcast
6:53 AM 46.9 °F - 39.0 °F 74% 30.11 in 10.0 mi South 10.4 mph - N/A   Mostly Cloudy
7:53 AM 50.0 °F - 39.0 °F 66% 30.11 in 10.0 mi SSE 16.1 mph - N/A   Mostly Cloudy
8:53 AM 52.0 °F - 39.0 °F 61% 30.12 in 10.0 mi South 16.1 mph - N/A   Mostly Cloudy
9:53 AM 53.1 °F - 39.0 °F 59% 30.12 in 10.0 mi South 11.5 mph - N/A   Mostly Cloudy
10:53 AM 55.0 °F - 39.0 °F 55% 30.12 in 10.0 mi SSE 11.5 mph - N/A   Mostly Cloudy
11:53 AM 57.9 °F - 39.0 °F 49% 30.10 in 10.0 mi SSE 11.5 mph - N/A   Mostly Cloudy
12:53 PM 59.0 °F - 39.0 °F 48% 30.10 in 10.0 mi SSE 12.7 mph 20.7 mph N/A   Overcast
1:53 PM 60.1 °F - 39.0 °F 46% 30.09 in 10.0 mi SSE 17.3 mph 23.0 mph N/A   Overcast
2:53 PM 60.1 °F - 39.0 °F 46% 30.08 in 10.0 mi South 18.4 mph - N/A   Overcast
3:53 PM 57.9 °F - 37.9 °F 47% 30.08 in 10.0 mi SSE 18.4 mph - 0.00 in Rain Light Rain
4:53 PM 59.0 °F - 37.0 °F 44% 30.07 in 10.0 mi South 17.3 mph 24.2 mph 0.00 in   Overcast
5:53 PM 57.9 °F - 37.0 °F 46% 30.06 in 10.0 mi SE 13.8 mph 23.0 mph N/A   Overcast
6:53 PM 55.9 °F - 37.0 °F 49% 30.06 in 10.0 mi SE 12.7 mph - N/A   Overcast
7:53 PM 55.0 °F - 36.0 °F 49% 30.06 in 10.0 mi SSE 12.7 mph - N/A   Overcast
8:53 PM 54.0 °F - 36.0 °F 51% 30.06 in 10.0 mi SSE 11.5 mph - N/A   Overcast
9:28 PM 53.1 °F - 36.0 °F 52% 30.04 in 10.0 mi SSE 11.5 mph - N/A   Overcast
9:53 PM 52.0 °F - 36.0 °F 54% 30.06 in 10.0 mi South 10.4 mph - N/A   Mostly Cloudy
10:53 PM 51.1 °F - 36.0 °F 56% 30.06 in 10.0 mi South 8.1 mph - N/A   Mostly Cloudy
11:53 PM 48.0 °F - 37.0 °F 66% 30.05 in 10.0 mi South 3.5 mph - N/A   Mostly Cloudy